Location: DARK SKY Beskydy - Park tmavé oblohy, www.darkskybeskydy.cz
(49.4926°N, 18.5016°E)
Time: 14:02:30
(UTC+01:00)

Vanguard 1 - Pass Details

Date: 21 November 2025
Orbit: 650 x 3821 km, 34.2° (Epoch: 07 December)

Event Time Altitude Azimuth Distance (km) Brightness Sun altitude
Rises 22:31:33 0° 279° (W) 7,953 15.0 -58.2°
Reaches altitude 10° 22:40:54 10° 262° (W) 6,854 14.4 -58.9°
Enters shadow 22:50:11 15° 237° (WSW) 6,074 13.9 -59.5°
